2010-01-31T23:00+09:00,50847,61844,21609,
2010-01-31T22:00+09:00,50774,62260,20831,
2010-01-31T21:00+09:00,50101,62267,294,
2010-01-31T20:00+09:00,49567,61539,20277,
2010-01-31T19:00+09:00,48519,60240,19812,
2010-01-31T18:00+09:00,45956,59279,18620,
2010-01-31T17:00+09:00,47534,58582,22248,
2010-01-31T16:00+09:00,47063,58043,21708,
2010-01-31T15:00+09:00,46771,58042,21598,
2010-01-31T14:00+09:00,46573,57953,21642,
2010-01-31T13:00+09:00,46352,57989,20403,
2010-01-31T12:00+09:00,46163,57924,17808,
2010-01-31T11:00+09:00,46037,57676,19466,
2010-01-31T10:00+09:00,45188,57002,16312,
2010-01-31T09:00+09:00,44058,56169,16953,
2010-01-31T08:00+09:00,43477,55868,19448,
2010-01-31T07:00+09:00,43472,55902,20045,
2010-01-31T06:00+09:00,43696,56405,19769,
2010-01-31T05:00+09:00,44555,57498,20027,
2010-01-31T04:00+09:00,46126,59256,20797,
2010-01-31T03:00+09:00,47986,61070,17812,
2010-01-31T02:00+09:00,49190,62416,19306,
2010-01-31T01:00+09:00,49679,62992,19339,
2010-01-31T00:00+09:00,49481,63720,19565,
2010-01-30T23:00+09:00,49063,62801,21304,
2010-01-30T22:00+09:00,48236,62365,23687,
2010-01-30T21:00+09:00,47413,60793,20708,
2010-01-30T20:00+09:00,46194,59282,22056,
2010-01-30T19:00+09:00,45281,57405,20238,
2010-01-30T18:00+09:00,44608,55914,18055,
2010-01-30T17:00+09:00,43965,54861,18930,
2010-01-30T16:00+09:00,43526,54085,19838,
2010-01-30T15:00+09:00,43454,53993,21539,
2010-01-30T14:00+09:00,43284,53891,19897,
2010-01-30T13:00+09:00,42892,53600,20484,
2010-01-30T12:00+09:00,43152,53126,18477,
2010-01-30T11:00+09:00,42406,52904,19507,
2010-01-30T10:00+09:00,42289,52369,18151,
2010-01-30T09:00+09:00,41985,52099,20341,
2010-01-30T08:00+09:00,41848,52445,19503,
2010-01-30T07:00+09:00,41447,52574,19124,
2010-01-30T06:00+09:00,41739,52701,19079,
2010-01-30T05:00+09:00,42430,53794,18767,
2010-01-30T04:00+09:00,44128,55436,19342,
2010-01-30T03:00+09:00,46187,57168,21059,
2010-01-30T02:00+09:00,46917,58488,19670,
2010-01-30T01:00+09:00,46919,58978,266,
2010-01-30T00:00+09:00,46228,58949,16920,
2010-01-29T23:00+09:00,44895,57681,19624,
2010-01-29T22:00+09:00,43495,55773,19301,
2010-01-29T21:00+09:00,41413,53082,18729,
2010-01-29T20:00+09:00,39238,50004,18673,
2010-01-29T19:00+09:00,37599,46778,20683,
2010-01-29T18:00+09:00,35865,44242,20828,
2010-01-29T17:00+09:00,35191,42861,20106,
2010-01-29T16:00+09:00,35155,42488,22402,
2010-01-29T15:00+09:00,34938,42227,19137,
2010-01-29T14:00+09:00,35237,42112,19961,
2010-01-29T13:00+09:00,35249,41900,18719,
2010-01-29T12:00+09:00,34814,41593,20160,
2010-01-29T11:00+09:00,34561,41328,22892,
2010-01-29T10:00+09:00,33261,41430,20582,
2010-01-29T09:00+09:00,36348,42652,20218,
2010-01-29T08:00+09:00,38677,45849,21025,
2010-01-29T07:00+09:00,39223,47335,20894,
2010-01-29T06:00+09:00,39215,47379,17651,
2010-01-29T05:00+09:00,39973,47981,20917,
2010-01-29T04:00+09:00,41242,49408,19325,
2010-01-29T03:00+09:00,42706,51150,21140,
2010-01-29T02:00+09:00,44618,53197,22138,
2010-01-29T01:00+09:00,46084,54603,19423,
2010-01-29T00:00+09:00,46424,55238,21498,
2010-01-28T23:00+09:00,45737,54628,21939,
2010-01-28T22:00+09:00,43559,52874,19078,
2010-01-28T21:00+09:00,41569,50442,19136,
2010-01-28T20:00+09:00,38802,47401,20247,
2010-01-28T19:00+09:00,37221,44654,19345,
2010-01-28T18:00+09:00,35463,42234,19036,
2010-01-28T17:00+09:00,34529,41125,19057,
2010-01-28T16:00+09:00,34231,40883,22167,
2010-01-28T15:00+09:00,34478,40582,19625,
2010-01-28T14:00+09:00,34346,40777,19096,
2010-01-28T13:00+09:00,34443,40551,17986,
2010-01-28T12:00+09:00,34383,40261,19075,
2010-01-28T11:00+09:00,34276,40004,21102,
2010-01-28T10:00+09:00,34527,39987,20213,
2010-01-28T09:00+09:00,36281,41086,22533,
2010-01-28T08:00+09:00,37883,44235,27635,
2010-01-28T07:00+09:00,36688,45833,25080,
2010-01-28T06:00+09:00,38351,45938,20929,
2010-01-28T05:00+09:00,38966,46426,20452,
2010-01-28T04:00+09:00,41261,48995,19923,
2010-01-28T03:00+09:00,42822,50628,20486,
2010-01-28T02:00+09:00,45397,52500,20178,
2010-01-28T01:00+09:00,45992,54039,17421,
2010-01-28T00:00+09:00,46418,54957,21215,
2010-01-27T23:00+09:00,46308,54775,21284,
2010-01-27T22:00+09:00,44127,53151,17773,
2010-01-27T21:00+09:00,42166,50892,20361,
2010-01-27T20:00+09:00,39806,47711,19981,
2010-01-27T19:00+09:00,37140,44656,19140,
2010-01-27T18:00+09:00,35721,42157,18868,
2010-01-27T17:00+09:00,35153,40947,18653,
2010-01-27T16:00+09:00,34828,40671,18334,
2010-01-27T15:00+09:00,34638,40438,17958,
2010-01-27T14:00+09:00,34645,40411,17422,
2010-01-27T13:00+09:00,35018,40324,19378,
2010-01-27T12:00+09:00,34586,40078,18942,
2010-01-27T11:00+09:00,34722,39804,19558,
2010-01-27T10:00+09:00,34918,39838,21000,
2010-01-27T09:00+09:00,36455,40934,20539,
2010-01-27T08:00+09:00,38585,44196,20372,
2010-01-27T07:00+09:00,38954,45881,20330,
2010-01-27T06:00+09:00,39286,46324,20092,
2010-01-27T05:00+09:00,39846,47023,21304,
2010-01-27T04:00+09:00,41197,48415,22232,
2010-01-27T03:00+09:00,43286,49979,18357,
2010-01-27T02:00+09:00,45484,51950,21530,
2010-01-27T01:00+09:00,46334,53652,20056,
2010-01-27T00:00+09:00,47077,54499,20498,
2010-01-26T23:00+09:00,45518,54062,20225,
2010-01-26T22:00+09:00,44191,52533,19683,
2010-01-26T21:00+09:00,42095,50227,20655,
2010-01-26T20:00+09:00,39743,47305,20332,
2010-01-26T19:00+09:00,37715,44557,18491,
2010-01-26T18:00+09:00,35971,42333,18662,
2010-01-26T17:00+09:00,35372,41196,20840,
2010-01-26T16:00+09:00,35012,40814,20715,
2010-01-26T15:00+09:00,34761,40633,20337,
2010-01-26T14:00+09:00,34797,40524,19920,
2010-01-26T13:00+09:00,34782,40503,19266,
2010-01-26T12:00+09:00,34785,40227,16934,
2010-01-26T11:00+09:00,34823,40151,20121,
2010-01-26T10:00+09:00,34967,40180,21174,
2010-01-26T09:00+09:00,36636,41247,18668,
2010-01-26T08:00+09:00,38602,44549,19445,
2010-01-26T07:00+09:00,39058,46377,21224,
2010-01-26T06:00+09:00,38971,46769,21157,
2010-01-26T05:00+09:00,39849,47434,21366,
2010-01-26T04:00+09:00,41402,49015,21176,
2010-01-26T03:00+09:00,43551,50596,21903,
2010-01-26T02:00+09:00,45575,52489,18918,
2010-01-26T01:00+09:00,46937,54065,18554,
2010-01-26T00:00+09:00,47553,55066,18648,
2010-01-25T23:00+09:00,46454,54760,17680,
2010-01-25T22:00+09:00,44499,53232,19184,
2010-01-25T21:00+09:00,42222,50974,20511,
2010-01-25T20:00+09:00,39938,48016,18262,
2010-01-25T19:00+09:00,38091,45377,18994,
2010-01-25T18:00+09:00,35818,42928,18620,
2010-01-25T17:00+09:00,35343,41834,19079,
2010-01-25T16:00+09:00,35326,41343,19485,
2010-01-25T15:00+09:00,34904,41134,19993,
2010-01-25T14:00+09:00,35165,41050,20095,
2010-01-25T13:00+09:00,34911,40868,20616,
2010-01-25T12:00+09:00,35070,40601,20516,
2010-01-25T11:00+09:00,35083,40368,24540,
2010-01-25T10:00+09:00,35512,40379,22079,
2010-01-25T09:00+09:00,37109,41494,21240,
2010-01-25T08:00+09:00,39180,44917,22577,
2010-01-25T07:00+09:00,39471,47063,20500,
2010-01-25T06:00+09:00,39625,47545,20023,
2010-01-25T05:00+09:00,40148,48257,22315,
2010-01-25T04:00+09:00,41994,50183,18474,
2010-01-25T03:00+09:00,43881,51779,19052,
2010-01-25T02:00+09:00,46708,53807,20295,
2010-01-25T01:00+09:00,48697,55775,20503,
2010-01-25T00:00+09:00,49710,57637,20891,
2010-01-24T23:00+09:00,49919,58429,21259,
2010-01-24T22:00+09:00,49235,58777,18752,
2010-01-24T21:00+09:00,48888,58388,21112,
2010-01-24T20:00+09:00,48413,57806,22357,
2010-01-24T19:00+09:00,47841,56590,19668,
2010-01-24T18:00+09:00,45166,55492,17748,
2010-01-24T17:00+09:00,46338,54413,18803,
2010-01-24T16:00+09:00,46254,54157,20106,
2010-01-24T15:00+09:00,45713,54033,19076,
2010-01-24T14:00+09:00,45552,53662,21260,
2010-01-24T13:00+09:00,45424,53472,21896,
2010-01-24T12:00+09:00,44579,53239,20821,
2010-01-24T11:00+09:00,44298,52623,22627,
2010-01-24T10:00+09:00,43592,51873,19777,
2010-01-24T09:00+09:00,42401,51138,20658,
2010-01-24T08:00+09:00,41602,50553,19109,
2010-01-24T07:00+09:00,41308,50332,16937,
2010-01-24T06:00+09:00,41318,50706,18733,
2010-01-24T05:00+09:00,42566,51344,22132,
2010-01-24T04:00+09:00,45396,54123,20156,
2010-01-24T03:00+09:00,47127,55625,21729,
2010-01-24T02:00+09:00,48573,56959,22813,
2010-01-24T01:00+09:00,49134,57594,19502,
2010-01-24T00:00+09:00,49124,58159,20606,
2010-01-23T23:00+09:00,48581,57522,22254,
2010-01-23T22:00+09:00,47659,56958,21510,
2010-01-23T21:00+09:00,46408,55669,21503,
2010-01-23T20:00+09:00,45799,54249,21866,
2010-01-23T19:00+09:00,44337,52691,21626,
2010-01-23T18:00+09:00,43191,51096,18921,
2010-01-23T17:00+09:00,42488,49906,20719,
2010-01-23T16:00+09:00,41708,49204,20833,
2010-01-23T15:00+09:00,37306,48593,16621,
2010-01-23T14:00+09:00,41026,48372,21307,
2010-01-23T13:00+09:00,40726,47638,20552,
2010-01-23T12:00+09:00,39757,46735,19679,
2010-01-23T11:00+09:00,38413,45507,21335,
2010-01-23T10:00+09:00,37144,44145,20175,
2010-01-23T09:00+09:00,35945,42387,22311,
2010-01-23T08:00+09:00,34441,41205,19040,
2010-01-23T07:00+09:00,33259,39716,20041,
2010-01-23T06:00+09:00,32555,38944,19752,
2010-01-23T05:00+09:00,33387,39166,18158,
2010-01-23T04:00+09:00,43565,52061,18126,
2010-01-23T03:00+09:00,45431,53468,20610,
2010-01-23T02:00+09:00,46776,54740,22973,
2010-01-23T01:00+09:00,46765,55054,21597,
2010-01-23T00:00+09:00,45970,54768,21222,
2010-01-22T23:00+09:00,44295,53598,22420,
2010-01-22T22:00+09:00,42468,51877,24491,
2010-01-22T21:00+09:00,40447,49760,19148,
2010-01-22T20:00+09:00,38407,47039,21776,
2010-01-22T19:00+09:00,36798,44370,16263,
2010-01-22T18:00+09:00,35366,42085,16443,
2010-01-22T17:00+09:00,34498,40991,17353,
2010-01-22T16:00+09:00,34396,40609,16834,
2010-01-22T15:00+09:00,34362,40409,18618,
2010-01-22T14:00+09:00,34729,40376,15995,
2010-01-22T13:00+09:00,34326,40326,17060,
2010-01-22T12:00+09:00,34321,40025,18868,
2010-01-22T11:00+09:00,34495,39888,21407,
2010-01-22T10:00+09:00,34764,39858,19764,
2010-01-22T09:00+09:00,36192,40883,17991,
2010-01-22T08:00+09:00,38379,44150,19969,
2010-01-22T07:00+09:00,37138,45989,21180,
2010-01-22T06:00+09:00,38966,46342,18594,
2010-01-22T05:00+09:00,39804,47004,19201,
2010-01-22T04:00+09:00,41295,48265,18645,
2010-01-22T03:00+09:00,42753,50070,15318,
2010-01-22T02:00+09:00,44984,52298,16891,
2010-01-22T01:00+09:00,44360,53643,14641,
2010-01-22T00:00+09:00,46975,54643,14624,
2010-01-21T23:00+09:00,45644,53909,18077,
2010-01-21T22:00+09:00,44078,52545,16421,
2010-01-21T21:00+09:00,41289,50260,15534,
2010-01-21T20:00+09:00,39042,47362,17222,
2010-01-21T19:00+09:00,37198,44360,18174,
2010-01-21T18:00+09:00,35741,42145,17053,
2010-01-21T17:00+09:00,34786,40829,18438,
2010-01-21T16:00+09:00,34596,40440,18582,
2010-01-21T15:00+09:00,34459,40233,17923,
2010-01-21T14:00+09:00,34400,40223,18029,
2010-01-21T13:00+09:00,34785,40087,20996,
2010-01-21T12:00+09:00,34108,39733,18529,
2010-01-21T11:00+09:00,33885,39547,18216,
2010-01-21T10:00+09:00,34246,39434,17327,
2010-01-21T09:00+09:00,35612,40620,20773,
2010-01-21T08:00+09:00,37967,43831,21951,
2010-01-21T07:00+09:00,38336,45773,19332,
2010-01-21T06:00+09:00,38203,46075,17621,
2010-01-21T05:00+09:00,39128,46659,19025,
2010-01-21T04:00+09:00,40851,48172,19150,
2010-01-21T03:00+09:00,42524,50033,20685,
2010-01-21T02:00+09:00,44692,52138,16785,
2010-01-21T01:00+09:00,46139,53773,19177,
2010-01-21T00:00+09:00,46134,54808,22055,
2010-01-20T23:00+09:00,44946,54656,21858,
2010-01-20T22:00+09:00,43686,53338,20925,
2010-01-20T21:00+09:00,42168,51388,20821,
2010-01-20T20:00+09:00,37514,48352,23461,
2010-01-20T19:00+09:00,37101,45272,18536,
2010-01-20T18:00+09:00,33477,42662,20728,
2010-01-20T17:00+09:00,34687,41485,20588,
2010-01-20T16:00+09:00,34416,41051,18690,
2010-01-20T15:00+09:00,34192,40837,16218,
2010-01-20T14:00+09:00,33932,40656,17285,
2010-01-20T13:00+09:00,33982,40599,17727,
2010-01-20T12:00+09:00,33559,40258,18494,
2010-01-20T11:00+09:00,33895,40081,19781,
2010-01-20T10:00+09:00,33970,40171,19189,
2010-01-20T09:00+09:00,35492,41231,18219,
2010-01-20T08:00+09:00,37630,44248,18792,
2010-01-20T07:00+09:00,38057,45928,18569,
2010-01-20T06:00+09:00,38184,46164,18275,
2010-01-20T05:00+09:00,38719,46629,20146,
2010-01-20T04:00+09:00,39989,47913,19748,
2010-01-20T03:00+09:00,42009,49616,20095,
2010-01-20T02:00+09:00,44384,51632,19161,
2010-01-20T01:00+09:00,45332,53152,20034,
2010-01-20T00:00+09:00,46104,53978,18780,
2010-01-19T23:00+09:00,44725,53610,22310,
2010-01-19T22:00+09:00,41495,52309,17805,
2010-01-19T21:00+09:00,40602,49989,19493,
2010-01-19T20:00+09:00,38088,46919,19916,
2010-01-19T19:00+09:00,35904,44054,18671,
2010-01-19T18:00+09:00,34189,41807,17254,
2010-01-19T17:00+09:00,33792,40528,17742,
2010-01-19T16:00+09:00,33782,40063,20580,
2010-01-19T15:00+09:00,33721,39610,19622,
2010-01-19T14:00+09:00,33687,39558,17283,
2010-01-19T13:00+09:00,33479,39526,20361,
2010-01-19T12:00+09:00,33715,39225,18534,
2010-01-19T11:00+09:00,33736,39042,21969,
2010-01-19T10:00+09:00,33913,38983,17770,
2010-01-19T09:00+09:00,35573,39887,17356,
2010-01-19T08:00+09:00,37729,42975,19956,
2010-01-19T07:00+09:00,37861,44958,18673,
2010-01-19T06:00+09:00,37592,45291,17272,
2010-01-19T05:00+09:00,38092,45898,19374,
2010-01-19T04:00+09:00,39940,47232,24109,
2010-01-19T03:00+09:00,41762,48736,20932,
2010-01-19T02:00+09:00,43951,50672,19889,
2010-01-19T01:00+09:00,45127,52148,19623,
2010-01-19T00:00+09:00,45731,52946,17114,
2010-01-18T23:00+09:00,44986,52451,18452,
2010-01-18T22:00+09:00,43129,51024,18610,
2010-01-18T21:00+09:00,41031,48864,18369,
2010-01-18T20:00+09:00,38259,45964,20082,
2010-01-18T19:00+09:00,36229,43371,18873,
2010-01-18T18:00+09:00,34781,41319,19267,
2010-01-18T17:00+09:00,33977,40230,17262,
2010-01-18T16:00+09:00,33625,39834,17717,
2010-01-18T15:00+09:00,33612,39599,18988,
2010-01-18T14:00+09:00,33723,39574,18773,
2010-01-18T13:00+09:00,33678,39416,18992,
2010-01-18T12:00+09:00,33324,39120,22477,
2010-01-18T11:00+09:00,33256,38861,21599,
2010-01-18T10:00+09:00,33488,38977,18246,
2010-01-18T09:00+09:00,35295,39878,18231,
2010-01-18T08:00+09:00,37407,43114,18557,
2010-01-18T07:00+09:00,37839,45156,23624,
2010-01-18T06:00+09:00,37848,45734,23437,
2010-01-18T05:00+09:00,38816,46563,19766,
2010-01-18T04:00+09:00,40067,48030,19463,
2010-01-18T03:00+09:00,42191,49845,19123,
2010-01-18T02:00+09:00,44853,52146,20054,
2010-01-18T01:00+09:00,46590,53967,18687,
2010-01-18T00:00+09:00,48132,55688,17038,
2010-01-17T23:00+09:00,48218,56625,17370,
2010-01-17T22:00+09:00,48079,56837,18791,
2010-01-17T21:00+09:00,47942,56504,17346,
2010-01-17T20:00+09:00,46917,55757,18027,
2010-01-17T19:00+09:00,46211,54917,19882,
2010-01-17T18:00+09:00,45843,54275,18410,
2010-01-17T17:00+09:00,44930,53275,17654,
2010-01-17T16:00+09:00,44413,52952,18075,
2010-01-17T15:00+09:00,44270,52619,18541,
2010-01-17T14:00+09:00,43955,52732,19811,
2010-01-17T13:00+09:00,43714,52324,20537,
2010-01-17T12:00+09:00,41887,52131,19285,
2010-01-17T11:00+09:00,43359,51645,21700,
2010-01-17T10:00+09:00,42535,51032,20704,
2010-01-17T09:00+09:00,41966,50352,21266,
2010-01-17T08:00+09:00,41294,50109,22048,
2010-01-17T07:00+09:00,41000,50221,21929,
2010-01-17T06:00+09:00,41383,50573,19384,
2010-01-17T05:00+09:00,42265,51667,21389,
2010-01-17T04:00+09:00,44251,53502,18570,
2010-01-17T03:00+09:00,45726,55147,18413,
2010-01-17T02:00+09:00,47106,56351,22381,
2010-01-17T01:00+09:00,47449,56850,19414,
2010-01-17T00:00+09:00,47930,57279,19080,
2010-01-16T23:00+09:00,47478,56955,17445,
2010-01-16T22:00+09:00,47240,56598,16968,
2010-01-16T21:00+09:00,46151,55881,15907,
2010-01-16T20:00+09:00,44984,54587,17490,
2010-01-16T19:00+09:00,44143,53137,17559,
2010-01-16T18:00+09:00,43107,51895,18681,
2010-01-16T17:00+09:00,42213,50903,19135,
2010-01-16T16:00+09:00,42005,50424,18676,
2010-01-16T15:00+09:00,41817,49941,17059,
2010-01-16T14:00+09:00,41599,49843,18856,
2010-01-16T13:00+09:00,41341,49387,19780,
2010-01-16T12:00+09:00,40957,49045,18154,
2010-01-16T11:00+09:00,40200,48595,20118,
2010-01-16T10:00+09:00,39835,48077,21484,
2010-01-16T09:00+09:00,39561,47580,22668,
2010-01-16T08:00+09:00,39184,47898,18787,
2010-01-16T07:00+09:00,39297,48102,17902,
2010-01-16T06:00+09:00,39419,48479,17905,
2010-01-16T05:00+09:00,40518,49071,22265,
2010-01-16T04:00+09:00,42105,50573,21464,
2010-01-16T03:00+09:00,43531,52135,19079,
2010-01-16T02:00+09:00,45375,53559,19166,
2010-01-16T01:00+09:00,45409,53870,20976,
2010-01-16T00:00+09:00,45170,54019,22618,
2010-01-15T23:00+09:00,42069,52579,19191,
2010-01-15T22:00+09:00,42169,50700,20034,
2010-01-15T21:00+09:00,40163,48711,16982,
2010-01-15T20:00+09:00,37913,45903,17375,
2010-01-15T19:00+09:00,36430,43153,16893,
2010-01-15T18:00+09:00,33033,40924,16676,
2010-01-15T17:00+09:00,33562,39953,17517,
2010-01-15T16:00+09:00,33120,39593,19483,
2010-01-15T15:00+09:00,33547,39471,18971,
2010-01-15T14:00+09:00,33351,39390,16946,
2010-01-15T13:00+09:00,32121,39316,18392,
2010-01-15T12:00+09:00,33154,39065,19551,
2010-01-15T11:00+09:00,32756,38962,17864,
2010-01-15T10:00+09:00,33156,39016,19874,
2010-01-15T09:00+09:00,33188,39859,17568,
2010-01-15T08:00+09:00,36962,43114,18842,
2010-01-15T07:00+09:00,35676,44894,18331,
2010-01-15T06:00+09:00,37295,45115,19307,
2010-01-15T05:00+09:00,37810,45587,17161,
2010-01-15T04:00+09:00,39602,47140,18730,
2010-01-15T03:00+09:00,39776,48873,21084,
2010-01-15T02:00+09:00,41718,50629,20363,
2010-01-15T01:00+09:00,42594,51880,18006,
2010-01-15T00:00+09:00,42479,52345,19782,
2010-01-14T23:00+09:00,43052,51906,24100,
2010-01-14T22:00+09:00,41278,50054,18874,
2010-01-14T21:00+09:00,38972,47721,20404,
2010-01-14T20:00+09:00,36125,44296,18694,
2010-01-14T19:00+09:00,34451,41469,15774,
2010-01-14T18:00+09:00,32662,39084,17759,
2010-01-14T17:00+09:00,31507,37826,18645,
2010-01-14T16:00+09:00,31532,37213,18501,
2010-01-14T15:00+09:00,31069,36874,17836,
2010-01-14T14:00+09:00,31094,36786,20991,
2010-01-14T13:00+09:00,30874,36704,21580,
2010-01-14T12:00+09:00,30562,36186,19501,
2010-01-14T11:00+09:00,30343,35852,21169,
2010-01-14T10:00+09:00,29924,35423,18568,
2010-01-14T09:00+09:00,31267,36017,15996,
2010-01-14T08:00+09:00,32389,38150,17579,
2010-01-14T07:00+09:00,32110,38653,19968,
2010-01-14T06:00+09:00,31492,38308,16455,
2010-01-14T05:00+09:00,32434,38790,18526,
2010-01-14T04:00+09:00,39582,47188,17556,
2010-01-14T03:00+09:00,40064,48631,16403,
2010-01-14T02:00+09:00,43484,50400,16005,
2010-01-14T01:00+09:00,44257,51734,19736,
2010-01-14T00:00+09:00,45044,52522,17551,
2010-01-13T23:00+09:00,42465,51998,17224,
2010-01-13T22:00+09:00,42781,50935,18477,
2010-01-13T21:00+09:00,40795,48902,22028,
2010-01-13T20:00+09:00,38657,46077,18366,
2010-01-13T19:00+09:00,36458,43068,17382,
2010-01-13T18:00+09:00,32830,40842,18996,
2010-01-13T17:00+09:00,33900,40060,16727,
2010-01-13T16:00+09:00,33975,39653,16106,
2010-01-13T15:00+09:00,33772,39674,16790,
2010-01-13T14:00+09:00,33766,39651,17944,
2010-01-13T13:00+09:00,34109,39567,16479,
2010-01-13T12:00+09:00,33566,39320,17250,
2010-01-13T11:00+09:00,33772,39260,20537,
2010-01-13T10:00+09:00,33761,39250,17433,
2010-01-13T09:00+09:00,35228,40208,16882,
2010-01-13T08:00+09:00,37649,43219,17907,
2010-01-13T07:00+09:00,38143,44953,18295,
2010-01-13T06:00+09:00,37991,45427,21609,
2010-01-13T05:00+09:00,38704,46046,20021,
2010-01-13T04:00+09:00,40298,47418,20876,
2010-01-13T03:00+09:00,42207,48948,20004,
2010-01-13T02:00+09:00,44138,50971,20852,
2010-01-13T01:00+09:00,45435,52321,21157,
2010-01-13T00:00+09:00,45903,53410,18395,
2010-01-12T23:00+09:00,45252,52735,15671,
2010-01-12T22:00+09:00,43503,51435,17884,
2010-01-12T21:00+09:00,41398,49126,16790,
2010-01-12T20:00+09:00,38854,46276,15677,
2010-01-12T19:00+09:00,36949,43690,13175,
2010-01-12T18:00+09:00,35155,41532,16059,
2010-01-12T17:00+09:00,34647,40590,16232,
2010-01-12T16:00+09:00,34795,40328,18266,
2010-01-12T15:00+09:00,34499,40178,19772,
2010-01-12T14:00+09:00,34739,40149,18539,
2010-01-12T13:00+09:00,34207,40027,19172,
2010-01-12T12:00+09:00,34431,39793,15993,
2010-01-12T11:00+09:00,34396,39626,17137,
2010-01-12T10:00+09:00,34761,39542,15203,
2010-01-12T09:00+09:00,36372,40574,16464,
2010-01-12T08:00+09:00,38424,43852,16170,
2010-01-12T07:00+09:00,38956,45661,16928,
2010-01-12T06:00+09:00,38950,46261,17704,
2010-01-12T05:00+09:00,39675,46981,17758,
2010-01-12T04:00+09:00,41190,48445,15171,
2010-01-12T03:00+09:00,43285,50179,14800,
2010-01-12T02:00+09:00,45444,52319,18061,
2010-01-12T01:00+09:00,47495,54188,16692,
2010-01-12T00:00+09:00,48491,55759,15741,
2010-01-11T23:00+09:00,49047,56703,17459,
2010-01-11T22:00+09:00,48905,56882,18136,
2010-01-11T21:00+09:00,48063,56536,14490,
2010-01-11T20:00+09:00,47143,55333,14106,
2010-01-11T19:00+09:00,45999,53735,16350,
2010-01-11T18:00+09:00,45046,52558,14881,
2010-01-11T17:00+09:00,44183,51720,14253,
2010-01-11T16:00+09:00,43730,51079,14946,
2010-01-11T15:00+09:00,42111,50690,17897,
2010-01-11T14:00+09:00,44240,50687,19362,
2010-01-11T13:00+09:00,43481,50194,18132,
2010-01-11T12:00+09:00,43306,49888,16547,
2010-01-11T11:00+09:00,43056,49630,17558,
2010-01-11T10:00+09:00,41947,49127,18614,
2010-01-11T09:00+09:00,41357,48598,17493,
2010-01-11T08:00+09:00,41387,48749,17270,
2010-01-11T07:00+09:00,41340,49109,16837,
2010-01-11T06:00+09:00,41857,49674,17952,
2010-01-11T05:00+09:00,42802,50573,15445,
2010-01-11T04:00+09:00,44523,52080,14876,
2010-01-11T03:00+09:00,46166,53639,18654,
2010-01-11T02:00+09:00,47678,55111,19739,
2010-01-11T01:00+09:00,48100,55994,21024,
2010-01-11T00:00+09:00,49033,57002,17313,
2010-01-10T23:00+09:00,48906,57477,18618,
2010-01-10T22:00+09:00,48096,57077,17407,
2010-01-10T21:00+09:00,47356,56470,15955,
2010-01-10T20:00+09:00,46920,55731,16884,
2010-01-10T19:00+09:00,46304,55023,14371,
2010-01-10T18:00+09:00,45478,54264,13322,
2010-01-10T17:00+09:00,44729,53639,17445,
2010-01-10T16:00+09:00,44336,53342,18363,
2010-01-10T15:00+09:00,44082,53110,18386,
2010-01-10T14:00+09:00,44108,53131,17459,
2010-01-10T13:00+09:00,44025,52753,17008,
2010-01-10T12:00+09:00,44011,52415,19182,
2010-01-10T11:00+09:00,43399,52036,18816,
2010-01-10T10:00+09:00,42551,51663,17635,
2010-01-10T09:00+09:00,41801,50938,16966,
2010-01-10T08:00+09:00,41365,50565,20922,
2010-01-10T07:00+09:00,41385,50497,19580,
2010-01-10T06:00+09:00,41794,50741,17452,
2010-01-10T05:00+09:00,42690,51686,17775,
2010-01-10T04:00+09:00,44430,53100,17600,
2010-01-10T03:00+09:00,46396,54696,18047,
2010-01-10T02:00+09:00,47612,55656,17010,
2010-01-10T01:00+09:00,47531,56164,15616,
2010-01-10T00:00+09:00,48328,57004,18847,
2010-01-09T23:00+09:00,47588,56426,17595,
2010-01-09T22:00+09:00,46972,56259,20881,
2010-01-09T21:00+09:00,46103,55089,20905,
2010-01-09T20:00+09:00,45271,53704,16911,
2010-01-09T19:00+09:00,44371,52106,15047,
2010-01-09T18:00+09:00,43406,50800,16040,
2010-01-09T17:00+09:00,42763,50181,17078,
2010-01-09T16:00+09:00,42514,49537,18275,
2010-01-09T15:00+09:00,42057,49192,17285,
2010-01-09T14:00+09:00,42115,49170,16656,
2010-01-09T13:00+09:00,42115,48866,17188,
2010-01-09T12:00+09:00,41733,48800,17270,
2010-01-09T11:00+09:00,41284,48471,17738,
2010-01-09T10:00+09:00,40587,48055,16334,
2010-01-09T09:00+09:00,40377,47792,18315,
2010-01-09T08:00+09:00,40417,48384,17116,
2010-01-09T07:00+09:00,40077,48675,17211,
2010-01-09T06:00+09:00,40693,49028,16980,
2010-01-09T05:00+09:00,41698,49845,17312,
2010-01-09T04:00+09:00,43393,51261,17027,
2010-01-09T03:00+09:00,44751,52728,17329,
2010-01-09T02:00+09:00,46470,54111,18660,
2010-01-09T01:00+09:00,46397,54743,15922,
2010-01-09T00:00+09:00,46037,54526,19399,
2010-01-08T23:00+09:00,44711,53390,16096,
2010-01-08T22:00+09:00,42754,51901,14545,
2010-01-08T21:00+09:00,40808,49547,17626,
2010-01-08T20:00+09:00,39132,46579,18833,
2010-01-08T19:00+09:00,36774,43877,16628,
2010-01-08T18:00+09:00,35303,41823,14471,